Location: Helsinki
(60.1699°N, 24.9384°E)
Time: 23:07:53
(UTC+02:00)

Altair - Pass Details

Date: 29 October 2020
Orbit: 1502 x 1682 km, 47.2° (Epoch: 25 November)

Event Time Altitude Azimuth Distance (km) Brightness Sun altitude
Rises 07:33:13 0° 244° (WSW) 4,680 9.7 -1.2°
Reaches altitude 10° 07:36:29 10° 237° (WSW) 3,719 9.2 -0.8°
Maximum altitude 07:44:50 38° 174° (S) 2,257 8.8 0.1°
Drops below altitude 10° 07:53:28 10° 112° (ESE) 3,847 11.8 1.0°
Sets 07:56:55 0° 104° (ESE) 4,858 12.0 1.4°
